Location: Grieser Field
(39.7333°N, 81.7975°W)
Time: 07:22:15
(UTC-04:00)

Meteor 2-1 Rocket - Visible Passes

Search period start: 31 March 2015 00:00
Search period end: 10 April 2015 00:00
Orbit: 829 x 908 km, 81.3° (Epoch: 30 March)

Date Brightness Start Highest point End Pass type
(mag) Time Alt. Az. Time Alt. Az. Time Alt. Az.
31 Mar 4.2 20:27:54 10° S 20:33:15 56° E 20:38:40 10° NNE visible
31 Mar 6.9 22:13:19 10° WSW 22:17:04 18° WNW 22:20:39 10° NNW visible
01 Apr 4.2 20:21:17 10° S 20:26:37 58° E 20:32:04 10° NNE visible
01 Apr 6.9 22:06:47 10° WSW 22:10:29 17° WNW 22:13:59 10° NNW visible
02 Apr 4.2 20:14:38 10° S 20:20:01 59° E 20:25:28 10° NNE visible
02 Apr 7.0 22:00:15 10° WSW 22:03:53 17° WNW 22:07:19 10° NNW visible
03 Apr 7.1 21:53:43 10° WSW 21:57:17 17° WNW 22:00:39 10° NNW visible
04 Apr 7.2 21:47:12 10° WSW 21:50:42 16° WNW 21:54:00 10° NNW visible
05 Apr 7.2 21:40:40 10° WSW 21:44:07 16° WNW 21:47:20 10° NNW visible
06 Apr 5.6 06:36:54 10° N 06:42:29 48° ENE 06:48:09 10° SSE visible
06 Apr 7.3 21:34:09 10° WSW 21:37:32 16° WNW 21:40:40 10° NNW visible
07 Apr 5.5 06:30:16 10° N 06:35:53 49° ENE 06:41:35 10° SSE visible
07 Apr 7.4 21:27:37 10° WSW 21:30:55 15° WNW 21:33:59 10° NNW visible
08 Apr 5.5 06:23:39 10° N 06:29:17 50° ENE 06:35:00 10° SSE visible
08 Apr 7.4 21:21:06 10° W 21:24:20 15° WNW 21:27:19 10° NNW visible
09 Apr 5.4 06:17:01 10° N 06:22:41 51° ENE 06:28:26 10° SSE visible
09 Apr 7.5 21:14:35 10° W 21:17:45 15° WNW 21:20:38 10° NNW visible
